Location: Newark
(35.2672°N, 80.7344°W)
Time: 07:00:45
(UTC+00:00)

Tiros 1 - Pass Details

Date: 27 January 2020
Orbit: 631 x 664 km, 48.4° (Epoch: 17 February)

Event Time Altitude Azimuth Distance (km) Brightness Sun altitude
Rises 00:44:58 0° 297° (WNW) 2,981 11.4 -24.5°
Reaches altitude 10° 00:47:31 10° 287° (WNW) 2,071 10.6 -25.1°
Maximum altitude 00:51:40 30° 227° (SW) 1,180 8.9 -25.9°
Enters shadow 00:54:18 18° 179° (S) 1,597 9.2 -26.4°
Drops below altitude 10° 00:55:50 10° 166° (SSE) 2,069 - -26.8°
Sets 00:58:24 0° 156° (SSE) 2,978 - -27.3°
